Weather Roundup
Issued by NWS

Home | Current Version | Previous Version | Graphics & Text | Print | Product List | Glossary Off
Versions: 1 2 3 4 5 6 7 8 9 10 11 12 13 14 15 16 17 18 19 20 21 22 23 24 25 26 27 28 29 30 31 32 33 34 35 36 37 38 39 40 41 42 43 44 45 46 47 48 49 50

716
NZUS93 KARX 050159
HRRWXR

CURRENT HOURLY OBSERVATIONS ACROSS
MUCH OF THE UPPER MISSISSIPPI VALLEY
NATIONAL WEATHER SERVICE LA CROSSE WI
900 PM CDT WED MAY 04 2016


...SOUTHEAST MINNESOTA...


CITY           SKY/WX    TMP DP  RH WIND       PRES   REMARKS
ROCHESTER      CLEAR     52  28  39 N8        29.95R
ROCHESTER/MAYO FAIR      58  25  27 NW5       29.95R
WINONA         CLEAR     55  27  33 CALM      29.94R
AUSTIN         CLEAR     54  28  37 N6        29.95R
ALBERT LEA     CLEAR     55  27  33 N7        29.95R
DODGE CENTER   CLEAR     52  23  32 N5        29.95S
PRESTON        CLEAR     51  27  39 N7        29.94R
OWATONNA       CLEAR     52  25  35 NW3       29.96R
FARIBAULT      NOT AVBL
$$

...ELSEWHERE IN MINNESOTA...


CITY           SKY/WX    TMP DP  RH WIND       PRES   REMARKS
MINNEAPOLIS    PTCLDY    58  24  27 N5        29.96R
INTNL FALLS    CLEAR     47  23  38 CALM      29.94F
DULUTH         CLEAR     46  24  42 E5        29.98R
RED WING       CLEAR     55  23  28 NE5       29.95R
REDWOOD FALLS  CLEAR     61  28  28 N6        29.97S
MANKATO        CLEAR     59  23  25 NE7       29.96S
WORTHINGTON    CLEAR     55  37  50 NW7       30.00R
FAIRMONT       CLEAR     61  28  29 N8        29.96R
$$

...SOUTHWEST WISCONSIN...


CITY           SKY/WX    TMP DP  RH WIND       PRES   REMARKS
LA CROSSE      CLEAR     58  23  26 NE12      29.93R
PRAIRIE DU CHI CLEAR     58  20  22 N8        29.90R
BOSCOBEL       CLEAR     57  21  24 NE8G16    29.91R
LONE ROCK      NOT AVBL
PLATTEVILLE    CLEAR     51  31  47 N8        29.88R
FORT MC COY    CLEAR     52  24  33 N6        29.94R
MAUSTON-NEW LI CLEAR     53  32  43 NE3       29.92R
VIROQUA        FAIR      50  23  34 N8        29.91R
WIS DELLS      CLEAR     52  30  44 N10G18    29.90R
$$

...ELSEWHERE IN WISCONSIN...


CITY           SKY/WX    TMP DP  RH WIND       PRES   REMARKS
MILWAUKEE      PTCLDY    41  34  76 N20G25    29.89R
MADISON        PTCLDY    48  34  58 N9        29.89R
GREEN BAY      PTCLDY    45  33  63 N16       29.94R
EAU CLAIRE     NOT AVBL
BLACK RVR FLS  FAIR      54  19  25 N6        29.93R
MEDFORD        CLEAR     46  31  57 N7        29.96R
WAUSAU         CLEAR     48  31  51 N7        29.94R
WIS RAPIDS     CLEAR     49  29  46 N13       29.95R
MARSHFIELD     CLEAR     49  31  49 NE8       29.94R
RICE LAKE      CLEAR     53  26  35 NE6       29.98R
$$

...NORTHEAST IOWA...


CITY           SKY/WX    TMP DP  RH WIND       PRES   REMARKS
WATERLOO       CLEAR     53  30  41 N10       29.92R
DUBUQUE        CLEAR     49  33  54 N9        29.89R
DECORAH        CLEAR     55  28  35 N7        29.91R
MASON CITY     CLEAR     52  30  43 N9        29.96R
CHARLES CITY   CLEAR     55  30  38 N9        29.94R
OELWEIN        CLEAR     55  32  41 N8        29.92R
$$

...ELSEWHERE IN IOWA...


CITY           SKY/WX    TMP DP  RH WIND       PRES   REMARKS
DES MOINES     PTCLDY    61  32  33 NW8       29.94R
IOWA CITY      CLEAR     58  32  37 N7        29.91R
FORT DODGE     CLEAR     59  34  38 CALM      29.96R
MARSHALLTOWN   CLEAR     57  31  37 N10       29.92R
CEDAR RAPIDS   CLEAR     54  35  48 N9        29.90R
$$

...NORTHERN ILLINOIS...


CITY           SKY/WX    TMP DP  RH WIND       PRES   REMARKS
CHICAGO-OHARE  MOCLDY    44  35  70 N15       29.87R
CHICAGO-MIDWAY CLOUDY    45  33  63 N18G25    29.86R
MOLINE         CLEAR     57  32  38 N6        29.87R
ROCKFORD       PTCLDY    51  37  58 NE9       29.89R
PEORIA         MOCLDY    55  34  45 NW5       29.86R
$$

NOTE: "FAIR" INDICATES FEW OR NO CLOUDS BELOW 12,000 FEET WITH NO
SIGNIFICANT WEATHER AND/OR OBSTRUCTIONS TO VISIBILITY. WIND
SPEEDS ARE IN MILES-PER-HOUR.




USA.gov is the U.S. government's official web portal to all federal, state and local government web resources and services.